User: anonymous   Login
Location: Unspecified
(0.0000°N, 0.0000°E)
Time: 09:24:15
(UTC+00:00)
Language:

MUNIN - Orbit

View from above orbital plane
View from above orbital plane
View from above satellite
View from above satellite

Ground track
Ground track

The orbit data is extracted from the following two-line orbital elements,

1 26621U 00075C   18023.84034867 +.00000384 +00000-0 +36719-3 0  9997
2 26621 095.4097 337.3381 0711442 228.8918 124.8662 13.04153420817152
Epoch (UTC): 23 January 2018 20:10:06
Eccentricity: 0.0711442
inclination: 95.4097°
perigee height: 703 km
apogee height: 1788 km
right ascension of ascending node: 337.3381°
argument of perigee: 228.8918°
revolutions per day: 13.04153420
mean anomaly at epoch: 124.8662°
orbit number at epoch: 81715

The dashed part of the orbit path shows where the satellite is in the earth's shadow,  

DLR